This is the latest recevied weather packets stored in our database for station/object XW7RMR. If no packets are shown the sender has not sent any weather packets the latest 10 day(s).
| Time | Temp. | Humidity | Pressure | Rain* | Wind** | Luminosity | Snow |
|---|---|---|---|---|---|---|---|
| 1777072436 | 19.44° C | 28% | 1013.3 hPa | 0 mm | - | 549 W/m² | - |
| 1777072132 | 19.44° C | 28% | 1013.3 hPa | 0 mm | - | 559 W/m² | - |
| 1777071828 | 20° C | 29% | 1013.4 hPa | 0 mm | - | 570 W/m² | - |
| 1777071524 | 20.56° C | 28% | 1013.4 hPa | 0 mm | - | 583 W/m² | - |
| 1777071219 | 20° C | 29% | 1013.5 hPa | 0 mm | - | 595 W/m² | - |
| 1777070915 | 19.44° C | 28% | 1013.4 hPa | 0 mm | - | 608 W/m² | - |
| 1777070613 | 18.89° C | 27% | 1013.5 hPa | 0 mm | - | 618 W/m² | - |
| 1777070313 | 18.89° C | 28% | 1013.6 hPa | 0 mm | - | 630 W/m² | - |
| 1777070007 | 18.89° C | 26% | 1013.7 hPa | 0 mm | - | 640 W/m² | - |
| 1777069707 | 18.89° C | 25% | 1013.8 hPa | 0 mm | - | 650 W/m² | - |
| 1777069402 | 19.44° C | 26% | 1013.9 hPa | 0 mm | - | 661 W/m² | - |
| 1777069100 | 18.89° C | 27% | 1014 hPa | 0 mm | - | 673 W/m² | - |
| 1777068795 | 18.89° C | 26% | 1014 hPa | 0 mm | - | 682 W/m² | - |
| 1777068491 | 18.89° C | 26% | 1014 hPa | 0 mm | - | 691 W/m² | - |
| 1777068190 | 18.89° C | 25% | 1014.2 hPa | 0 mm | - | 702 W/m² | - |
| 1777067885 | 19.44° C | 25% | 1014.4 hPa | 0 mm | - | 710 W/m² | - |
| 1777067584 | 18.89° C | 24% | 1014.4 hPa | 0 mm | - | 720 W/m² | - |
| 1777067283 | 18.89° C | 25% | 1014.3 hPa | 0 mm | - | 726 W/m² | - |
| 1777066979 | 18.89° C | 25% | 1014.4 hPa | 0 mm | - | 735 W/m² | - |
| 1777066674 | 19.44° C | 26% | 1014.6 hPa | 0 mm | - | 743 W/m² | - |
| 1777066371 | 18.89° C | 29% | 1014.5 hPa | 0 mm | - | 752 W/m² | - |
| 1777066065 | 19.44° C | 26% | 1014.7 hPa | 0 mm | - | 760 W/m² | - |
| 1777065759 | 18.33° C | 26% | 1014.7 hPa | 0 mm | - | 762 W/m² | - |
| 1777065455 | 18.89° C | 24% | 1014.6 hPa | 0 mm | - | 770 W/m² | - |
| 1777065150 | 18.89° C | 26% | 1014.8 hPa | 0 mm | - | 776 W/m² | - |
* Rain latest hour (hover to see other rain measurements)
** Current wind speed in m/s (hover to see current wind gust speed)